User: anonymous   Login
Location: Melbourne
(37.8170°S, 144.9670°E)
Time: 02:38:17
(UTC+10:00)
Language:

CZ-3 R/B - Orbit

View from above orbital plane
View from above orbital plane
View from above satellite
View from above satellite

Ground track
Ground track

The orbit data is extracted from the following two-line orbital elements,

1 29517U 06048B   17147.45013182 +.00010589 +00000-0 +48570-3 0  9996
2 29517 028.4191 194.9124 4367386 188.3621 160.9981 06.80127878166157
Epoch (UTC): 27 May 2017 10:48:11
Eccentricity: 0.4367386
inclination: 28.4191°
perigee height: 250 km
apogee height: 10528 km
right ascension of ascending node: 194.9124°
argument of perigee: 188.3621°
revolutions per day: 6.80127878
mean anomaly at epoch: 160.9981°
orbit number at epoch: 16615

The dashed part of the orbit path shows where the satellite is in the earth's shadow,  

DLR